Find Starlink 36407

NORAD ID: 67612 Int'l Des: 2026-018 Owner: SPXS Country: US Constellation: starlink operational
LEOCIRCULARRETROGRADE

Live Position

Loading 3D Globe...

About Starlink 36407

Description loading...

Upcoming Passes

Passes for default location (London). Set your location on the main map for personalized predictions.

Altitude History

Loading altitude history...

Two-Line Element Set

1 67612U 26018Z 26105.65031683 .00017552 00000-0 54467-3 0 9994
2 67612 97.2835 171.4176 0000944 96.6010 263.5341 15.33448345 13057
Epoch: Apr 15, 2026 • Age: 19 hours

Current Status

Altitude 472.0 km
Velocity 7.63 km/s
Sub-Earth Point 45.89°N, 9.59°W
Launch Date Jan 29, 2026
Age 0.2 years
Type internet

Technical Details

Classification Payload
Mass 575.00 kg
Dry Mass 530.00 kg
Total Mass 575.00 kg
Length 0.30 m
Diameter 4.10 m
Span 29.00 m
Shape Box + pan
Manufacturer SPXS
Bus Type Starlink V2MO
Phase Status In Orbit
Owner/State SPXS/US

Most Searched